Regional Weather Roundup
Issued by NWS

Home | Current Version | Previous Version | Graphics & Text | Print | Product List | Glossary On
Versions: 1 2 3 4 5 6 7 8 9 10 11 12 13 14 15 16 17 18 19 20 21 22 23 24 25 26 27
000
ASUS45 KBOU 280610
RWRCO

WEATHER ROUNDUP FOR COLORADO
NATIONAL WEATHER SERVICE DENVER/BOULDER CO
1200 AM MDT WED SEP 28 2016

NOTE: "FAIR" INDICATES FEW OR NO CLOUDS BELOW 12000 FEET WITH NO
SIGNIFICANT WEATHER AND/OR OBSTRUCTIONS TO VISIBILITY.

COZ001>005-013-030-031-280700-
...NORTHWEST COLORADO...

CITY           SKY/WX    TMP DP  RH WIND       PRES   REMARKS
CRAIG          FAIR      40  35  83 CALM      30.29S
HAYDEN         FAIR      50  30  46 E6        30.30S
MEEKER         FAIR      50  38  63 VRB5      30.30R
MOUNT WERNER   NOT AVBL
STEAMBOAT SPGS FAIR      47  33  57 CALM      30.33R
WALDEN           N/A     34  25  69 SE8       30.42R WCI  27
$$

COZ006>008-011-280700-
...WEST CENTRAL VALLEYS...

CITY           SKY/WX    TMP DP  RH WIND       PRES   REMARKS
GRAND JUNCTION FAIR      60  37  42 SE3       30.17S
MONTROSE       FAIR      54  38  54 SE7       30.27R
EAGLE          FAIR      52  30  43 CALM      30.33R
RIFLE          FAIR      54  39  57 E3        30.24R
DELTA          NOT AVBL
NUCLA          FAIR      55  34  44 E10       30.29R
$$

COZ017>023-064>068-280700-
...SOUTHWEST COLORADO...

CITY           SKY/WX    TMP DP  RH WIND       PRES   REMARKS
DURANGO        FAIR      48  33  56 CALM      30.28S
CORTEZ         FAIR      50  38  63 NE5       30.25R
PAGOSA SPRINGS FAIR      44  29  56 CALM      30.36S
TELLURIDE      FAIR      49  37  63 SE5       30.47S
WOLF CREEK PAS FAIR      43  23  45 MISG      30.64S
$$

COZ009-010-012-014-032>034-037-058>063-280700-
...CENTRAL COLORADO...

CITY           SKY/WX    TMP DP  RH WIND       PRES   REMARKS
ASPEN          FAIR      46  31  55 SW9       30.37R
BUENA VISTA    FAIR      46  27  47 NW6       30.38S
COPPER MTN     FAIR      48  18  29 W3        30.64S
BERTHOUD PASS  FAIR      37  27  65 E20       30.67S
COTTONWOOD PAS FAIR      55  21  26 CALM      30.50F
GUNNISON       FAIR      45  32  60 NE5       30.37R
KREMMLING      FAIR      43  23  45 CALM      30.38R
LEADVILLE      FAIR      43  21  41 N3        30.50R
MONARCH PASS   FAIR      43  27  52 NE14      30.72S
SALIDA         FAIR      52  31  44 W9        30.43S
SUNLIGHT       FAIR      48  32  53 CALM      30.58S
WILKERSON PASS FAIR      45  19  36 E5        30.62S
$$

COZ069>075-280700-
...SAN LUIS VALLEY/SANGRE DE CRISTO MOUNTAINS...

CITY           SKY/WX    TMP DP  RH WIND       PRES   REMARKS
ALAMOSA        FAIR      39  26  59 E6        30.34R
LA VETA PASS   FAIR      46  25  42 MISG      30.51R
SAGUACHE       NOT AVBL
$$

COZ035-036-038>040-280700-
...NORTHERN COLORADO FRONT RANGE...

CITY           SKY/WX    TMP DP  RH WIND       PRES   REMARKS
DENVER INTL AP FAIR      59  25  27 SW7       30.22R
DMNS CITY PARK   N/A     58  35  41 S2G8      30.21S
AURORA         CLEAR     56  26  30 S8        30.23S
FRONT RANGE AP NOT AVBL
ERIE MUNI ARPT FAIR      49  33  52 SW3       30.21R
BOULDER MUN AP FAIR      55  34  44 CALM      30.21R
CENTENNIAL     FAIR      53  31  42 S5        30.24R
BROOMFIELD     FAIR      59  28  31 NW5       30.24R
FORT COLLINS   FAIR      57  36  44 N7        30.20S
LONGMONT       FAIR      53  37  54 NE6       30.23R
$$

COZ041-046-047-076>085-087-088-280700-
...PIKES PEAK/PALMER DIVIDE AND SOUTHERN FOOTHILLS...

CITY           SKY/WX    TMP DP  RH WIND       PRES   REMARKS
COLO. SPRINGS  FAIR      55  33  43 NW6       30.27R
A. F. ACADEMY  FAIR      49  29  44 N9        30.28S
SCHRIEVER AFB  NOT AVBL
ELLICOTT       NOT AVBL
FALCON         FAIR      51  32  48 W3        30.31S
FORT CARSON    FAIR      56  32  40 NW9       30.22S
LIMON          FAIR      45  26  47 CALM      30.21R
MONUMENT HILL  FAIR      46  28  49 W6        30.33S
TRINIDAD       FAIR      58  32  37 W13       30.20R
$$

COZ042>045-048>051-090-091-280700-
...NORTHEAST COLORADO...

CITY           SKY/WX    TMP DP  RH WIND       PRES   REMARKS
GREELEY ARPT   FAIR      50  37  62 NW9       30.19S
AKRON          FAIR      63  29  27 E6        30.17R
BURLINGTON     FAIR      52  38  58 W6        30.13R
WRAY           NOT AVBL
STERLING       FAIR      50  34  53 CALM      30.13R
HOLYOKE        FAIR      52  36  54 NW3       30.12R
FORT MORGAN    FAIR      54  26  34 NW3       30.17R
$$

COZ086-089-092>099-280700-
...SOUTHEAST COLORADO...

CITY           SKY/WX    TMP DP  RH WIND       PRES   REMARKS
PUEBLO         FAIR      60  31  33 N12       30.15R
LA JUNTA       FAIR      54  33  45 W3        30.11R
LAMAR          FAIR      54  39  57 CALM      30.07R
SPRINGFIELD    NOT AVBL
$$




USA.gov is the U.S. government's official web portal to all federal, state and local government web resources and services.